Ionia, MI

12:02 AM EDT on April 30, 2017 (GMT -0400)
Ionia

Weather History for KY70 - December, 2012

Change the Weather History Date:

Sunday, December 23, 2012

  Actual Average (KGRR) Record (KGRR)
Temperature  
Mean Temperature 30 °F -  
Max Temperature 34 °F 32 °F 60 °F (2015)
Min Temperature 25 °F 19 °F -11 °F (1989)
Degree Days  
Heating Degree Days 36    
Moisture  
Dew Point 21 °F    
Average Humidity 68    
Maximum Humidity 79    
Minimum Humidity 57    
Precipitation  
Precipitation 0.00 in - - ()
Sea Level Pressure  
Sea Level Pressure 29.94 in    
Wind  
Wind Speed 6 mph (WNW)    
Max Wind Speed 10 mph    
Max Gust Speed -    
Visibility 10 miles    
Events      
Averages and records for this station are not official NWS values.
T = Trace of Precipitation, MM = Missing Value Source: NWS Daily Summary

Daily Weather History Graph

Daily Weather History Graph

Search for Another Location

Airport or City:

Trip Planner

Search our weather history database for the weather conditions in past years. The results will help you decide how hot, cold, wet, or windy it might be!

Date:

Astronomy

Dec. 23, 2012 Rise Set
Actual Time 8:09 AM EST 5:10 PM EST
Civil Twilight 7:36 AM EST 5:42 PM EST
Nautical Twilight 7:01 AM EST 6:18 PM EST
Astronomical Twilight 6:26 AM EST 6:52 PM EST
Moon 2:03 PM EST (12/23) 3:47 AM EST (12/23)
Length of Visible Light 10h 05m
Length of Day
9h 00m
Waxing Gibbous, 81% of the Moon is Illuminated
Dec 23
Waxing Gibbous
Dec 28
Full
Jan 4
Last Quarter
Jan 11
New
Jan 18
First Quarter

Hourly Weather History & Observations

Time (EST) Temp. Windchill Dew Point Humidity Pressure Visibility Wind Dir Wind Speed Gust Speed Precip Events Conditions
12:14 AM 29.7 °F 21.3 °F 21.2 °F 71% 29.94 in 10.0 mi SW 9.2 mph - N/A   Clear
12:34 AM 29.3 °F 22.3 °F 20.8 °F 71% 29.94 in 10.0 mi SW 6.9 mph - N/A   Clear
12:54 AM 29.1 °F 21.3 °F 20.8 °F 71% 29.94 in 10.0 mi SW 8.1 mph - N/A   Clear
1:14 AM 29.1 °F 21.3 °F 20.7 °F 71% 29.93 in 10.0 mi SW 8.1 mph - N/A   Clear
1:34 AM 28.9 °F 19.8 °F 20.5 °F 71% 29.92 in 10.0 mi SW 10.4 mph - N/A   Clear
1:54 AM 28.9 °F 20.4 °F 20.5 °F 71% 29.91 in 10.0 mi SW 9.2 mph - N/A   Clear
2:14 AM 28.9 °F 21.9 °F 20.3 °F 70% 29.91 in 10.0 mi SW 6.9 mph - N/A   Clear
2:34 AM 28.4 °F 20.4 °F 20.3 °F 72% 29.90 in 10.0 mi SW 8.1 mph - N/A   Clear
2:54 AM 28.0 °F 20.0 °F 20.3 °F 73% 29.89 in 10.0 mi SW 8.1 mph - N/A   Clear
3:14 AM 28.2 °F 19.5 °F 20.1 °F 72% 29.89 in 10.0 mi SW 9.2 mph - N/A   Clear
3:34 AM 27.9 °F 21.5 °F 19.9 °F 72% 29.89 in 10.0 mi WSW 5.8 mph - N/A   Clear
3:54 AM 27.3 °F 19.9 °F 19.8 °F 73% 29.88 in 10.0 mi SW 6.9 mph - N/A   Clear
4:14 AM 27.1 °F 20.7 °F 19.4 °F 73% 29.87 in 10.0 mi WSW 5.8 mph - N/A   Clear
4:34 AM 26.6 °F 20.0 °F 19.4 °F 74% 29.87 in 10.0 mi WSW 5.8 mph - N/A   Clear
4:54 AM 27.1 °F 19.7 °F 19.9 °F 74% 29.87 in 10.0 mi WSW 6.9 mph - N/A   Clear
5:14 AM 26.4 °F 19.8 °F 19.6 °F 75% 29.87 in 10.0 mi SW 5.8 mph - N/A   Clear
5:34 AM 26.6 °F 21.2 °F 19.9 °F 76% 29.86 in 10.0 mi WSW 4.6 mph - N/A   Clear
5:54 AM 25.5 °F 19.9 °F 19.4 °F 78% 29.87 in 7.0 mi West 4.6 mph - N/A   Clear
6:14 AM 26.6 °F 20.0 °F 19.8 °F 75% 29.88 in 10.0 mi WNW 5.8 mph - N/A   Clear
6:34 AM 27.0 °F 20.5 °F 19.9 °F 75% 29.88 in 10.0 mi West 5.8 mph - N/A   Clear
6:54 AM 26.6 °F 21.2 °F 19.9 °F 76% 29.89 in 7.0 mi West 4.6 mph - N/A   Clear
7:14 AM 25.7 °F 21.5 °F 19.6 °F 78% 29.89 in 7.0 mi WNW 3.5 mph - N/A   Clear
7:34 AM 26.1 °F 21.9 °F 19.9 °F 78% 29.89 in 7.0 mi West 3.5 mph - N/A   Clear
7:54 AM 25.3 °F 21.1 °F 19.2 °F 78% 29.89 in 7.0 mi WNW 3.5 mph - N/A   Clear
8:14 AM 25.7 °F 21.5 °F 19.8 °F 78% 29.90 in 7.0 mi WNW 3.5 mph - N/A   Clear
8:34 AM 25.5 °F 21.3 °F 19.8 °F 79% 29.91 in 7.0 mi WNW 3.5 mph - N/A   Clear
8:54 AM 25.9 °F 21.7 °F 19.9 °F 78% 29.91 in 7.0 mi West 3.5 mph - N/A   Clear
9:14 AM 28.0 °F 24.2 °F 21.6 °F 77% 29.92 in 7.0 mi WNW 3.5 mph - N/A   Clear
9:34 AM 29.7 °F - 22.1 °F 73% 29.92 in 7.0 mi Calm Calm - N/A   Scattered Clouds
9:54 AM 30.6 °F - 22.6 °F 72% 29.92 in 7.0 mi Calm Calm - N/A   Overcast
10:14 AM 31.3 °F 26.6 °F 23.2 °F 72% 29.93 in 7.0 mi WNW 4.6 mph - N/A   Overcast
10:34 AM 32.0 °F 27.5 °F 23.2 °F 70% 29.94 in 10.0 mi WNW 4.6 mph - N/A   Overcast
10:54 AM 32.9 °F 27.5 °F 24.3 °F 71% 29.95 in 7.0 mi WNW 5.8 mph - N/A   Overcast
11:14 AM 32.9 °F 26.7 °F 24.3 °F 71% 29.95 in 10.0 mi NW 6.9 mph - N/A   Overcast
11:34 AM 33.6 °F 28.4 °F 25.0 °F 71% 29.95 in 10.0 mi NW 5.8 mph - N/A   Overcast
11:54 AM 34.0 °F 27.2 °F 24.6 °F 69% 29.95 in 10.0 mi NNW 8.1 mph - N/A   Overcast
12:14 PM 33.8 °F 27.0 °F 24.6 °F 69% 29.95 in 10.0 mi North 8.1 mph - N/A   Overcast
12:34 PM 33.8 °F 26.4 °F 23.0 °F 65% 29.95 in 10.0 mi North 9.2 mph - N/A   Overcast
12:54 PM 33.8 °F 27.7 °F 23.0 °F 65% 29.94 in 10.0 mi North 6.9 mph - N/A   Overcast
1:14 PM 33.8 °F 27.0 °F 22.5 °F 63% 29.94 in 10.0 mi North 8.1 mph - N/A   Overcast
1:34 PM 33.8 °F 27.7 °F 22.3 °F 63% 29.94 in 10.0 mi NNW 6.9 mph - N/A   Overcast
1:54 PM 33.8 °F 27.7 °F 21.2 °F 60% 29.94 in 10.0 mi NNW 6.9 mph - N/A   Overcast
2:14 PM 33.8 °F 29.6 °F 21.9 °F 62% 29.94 in 10.0 mi NNW 4.6 mph - N/A   Overcast
2:34 PM 34.0 °F 28.0 °F 21.6 °F 60% 29.94 in 10.0 mi NNW 6.9 mph - N/A   Overcast
2:54 PM 34.0 °F 28.0 °F 20.5 °F 58% 29.94 in 10.0 mi NW 6.9 mph - N/A   Overcast
3:14 PM 33.8 °F 30.8 °F 20.7 °F 59% 29.94 in 10.0 mi WNW 3.5 mph - N/A   Overcast
3:34 PM 34.2 °F 30.0 °F 20.7 °F 58% 29.94 in 10.0 mi NW 4.6 mph - N/A   Overcast
3:54 PM 33.8 °F 27.7 °F 21.0 °F 60% 29.95 in 10.0 mi NW 6.9 mph - N/A   Overcast
4:14 PM 33.3 °F 28.9 °F 21.4 °F 62% 29.96 in 10.0 mi NNW 4.6 mph - N/A   Overcast
4:34 PM 33.4 °F 28.1 °F 20.7 °F 59% 29.97 in 10.0 mi NW 5.8 mph - N/A   Overcast
4:54 PM 33.3 °F 27.1 °F 20.7 °F 60% 29.97 in 10.0 mi NW 6.9 mph - N/A   Overcast
5:14 PM 32.9 °F 27.5 °F 20.1 °F 59% 29.97 in 10.0 mi NW 5.8 mph - N/A   Overcast
5:34 PM 32.5 °F - 19.2 °F 58% 29.98 in 10.0 mi Calm Calm - N/A   Overcast
5:54 PM 32.9 °F 29.8 °F 19.6 °F 58% 29.99 in 10.0 mi WNW 3.5 mph - N/A   Overcast
6:14 PM 32.7 °F 27.3 °F 19.8 °F 59% 29.99 in 10.0 mi WNW 5.8 mph - N/A   Overcast
6:34 PM 32.4 °F 27.9 °F 19.4 °F 59% 30.00 in 10.0 mi NW 4.6 mph - N/A   Overcast
6:54 PM 32.2 °F - 19.8 °F 60% 30.00 in 10.0 mi Calm Calm - N/A   Overcast
7:14 PM 32.0 °F - 18.3 °F 57% 30.00 in 10.0 mi Calm Calm - N/A   Overcast
7:34 PM 32.0 °F - 19.8 °F 61% 30.01 in 10.0 mi Calm Calm - N/A   Overcast
7:54 PM 32.0 °F - 19.2 °F 59% 30.02 in 10.0 mi Calm Calm - N/A   Overcast
8:14 PM 30.7 °F - 21.9 °F 70% 30.02 in 10.0 mi Calm Calm - N/A   Overcast
8:34 PM 31.3 °F - 20.5 °F 64% 30.02 in 10.0 mi Calm Calm - N/A   Overcast
8:54 PM 31.1 °F 26.4 °F 20.5 °F 65% 30.02 in 10.0 mi North 4.6 mph - N/A   Overcast
9:14 PM 30.4 °F 25.6 °F 20.3 °F 66% 30.02 in 10.0 mi North 4.6 mph - N/A   Overcast
9:54 PM 27.9 °F 21.5 °F 19.2 °F 70% 30.01 in 10.0 mi NNE 5.8 mph - N/A   Clear
10:14 PM 27.1 °F 21.8 °F 19.2 °F 72% 30.00 in 10.0 mi NNE 4.6 mph - N/A   Clear
10:34 PM 26.6 °F 21.2 °F 18.5 °F 71% 30.00 in 10.0 mi ENE 4.6 mph - N/A   Clear
10:54 PM 27.3 °F 19.9 °F 18.3 °F 69% 29.99 in 10.0 mi NE 6.9 mph - N/A   Clear
11:14 PM 27.1 °F 21.8 °F 17.6 °F 67% 29.99 in 10.0 mi NE 4.6 mph - N/A   Clear
11:34 PM 25.7 °F 20.1 °F 17.6 °F 71% 29.99 in 10.0 mi NNE 4.6 mph - N/A   Clear
11:54 PM 25.2 °F 19.5 °F 17.6 °F 73% 29.99 in 10.0 mi NNE 4.6 mph - N/A   Clear